Location: Solstice Park, West Seattle
(47.5363°N, 122.3905°W)
Time: 14:24:54
(UTC-07:00)

ISS - Pass Details

Date: 14 May 2021
Orbit: 417 x 422 km, 51.6° (Epoch: 22 June)

Event Time Altitude Azimuth Distance (km) Brightness Sun altitude
Rises 23:08:33 0° 243° (WSW) 2,356 0.1 -18.5°
Reaches altitude 10° 23:10:38 10° 243° (WSW) 1,496 -0.9 -18.7°
Maximum altitude 23:14:00 87° 156° (SSE) 425 -3.9 -18.9°
Drops below altitude 10° 23:17:23 10° 66° (ENE) 1,506 -1.0 -19.2°
Sets 23:19:30 0° 66° (ENE) 2,373 0.0 -19.4°
